Home   Weather   London   Past weeks

Flag for Canada Past Weather in London, Ontario, Canada — Yesterday and Last 2 Weeks

Now
32 °F

Passing clouds.


Feels Like: 32 °F
Forecast: 33 / 64 °F
Wind: No wind

Location: London Weather Station

Current Time: Apr 23, 2017 at 8:14:33 am

Latest Report: Apr 23, 2017 at 7:04 am


Visibility: 15 mi

Pressure: 30.14 "Hg

Humidity: 100%

Dew Point: 32 °F

Location of LondonLocation

Past Weather in London — Graph

°F

London Temperature Yesterday

Maximum temperature yesterday: 55 °F (at 3:00 pm)
Minimum temperature yesterday: 36 °F (at 5:41 am)
Average temperature yesterday: 45 °F

High & Low Weather Summary for the Past Weeks

 TemperatureHumidityPressure
High73 °F (Apr 15, 6:00 pm)100% (Apr 11, 5:00 am)30.54 "Hg (Apr 11, 5:00 am)
Low32 °F (Apr 8, 6:00 am)33% (Apr 8, 5:00 pm)29.76 "Hg (Apr 16, 10:00 am)
Average50 °F74%30.08 "Hg
* Reported Apr 8 6:00 am — Apr 23 6:50 am, London, Weather by CustomWeather, © 2017

Note: Actual official high and low records may vary slightly from our data, if they occured in-between our weather recording intervals... More about our weather records

Advertising

London Weather History for the Previous 24 Hours

Scroll right to see more
 ConditionsComfort  
Time TempWeatherWind HumidityBarometerVisibility
6:50 am
Sun, Apr 23
32 °FLight fog.No wind100%30.13 "Hg15 mi
6:29 am32 °FFog.2 mph100%30.13 "Hg15 mi
6:00 am32 °FClear.5 mph100%30.12 "Hg15 mi
5:00 am32 °FClear.2 mph93%30.10 "Hg15 mi
4:00 am34 °FClear.5 mph87%30.10 "Hg15 mi
3:00 am34 °FClear.2 mph93%30.12 "Hg15 mi
2:00 am36 °FClear.2 mph87%30.13 "Hg15 mi
1:00 am37 °FClear.3 mph87%30.15 "Hg15 mi
12:00 am39 °FClear.5 mph81%30.14 "Hg15 mi
11:00 pm
Sat, Apr 22
41 °FClear.8 mph76%30.14 "Hg15 mi
10:00 pm43 °FPassing clouds.7 mph71%30.13 "Hg15 mi
9:00 pm45 °FPassing clouds.8 mph71%30.12 "Hg15 mi
8:00 pm48 °FPartly sunny.7 mph66%30.11 "Hg15 mi
7:00 pm54 °FPartly sunny.9 mph54%30.09 "Hg15 mi
6:00 pm55 °FPartly sunny.10 mph47%30.10 "Hg15 mi
5:00 pm55 °FPartly sunny.8 mph51%30.11 "Hg15 mi
4:00 pm55 °FBroken clouds.9 mph51%30.11 "Hg15 mi
3:00 pm55 °FPartly sunny.9 mph51%30.11 "Hg15 mi
2:00 pm54 °FBroken clouds.13 mph54%30.12 "Hg15 mi
1:00 pm50 °FBroken clouds.15 mph62%30.12 "Hg15 mi
12:00 pm50 °FBroken clouds.13 mph62%30.13 "Hg15 mi
11:00 am45 °FMostly cloudy.12 mph71%30.14 "Hg15 mi
10:00 am45 °FMostly cloudy.8 mph71%30.14 "Hg15 mi
9:00 am41 °FBroken clouds.14 mph76%30.13 "Hg15 mi
8:00 am39 °FPartly sunny.10 mph87%30.11 "Hg15 mi
Weather by CustomWeather, © 2017

See weather overviewHow to use our weather pages